Precipitable_Water
0.39 0.38 0.37 0.36 0.36 0.36 0.35 0.35 0.35 0.34 0.34 0.34 0.33 0.33 0.33 0.33 0.33 0.33 0.32 0.32 0.31 0.31 0.31 0.31 0.31 0.31 0.30 0.30 0.30 0.30 0.29 0.29 0.29 0.29 0.29 0.28 0.28 0.28 0.28 0.27 0.28 0.27
0.38 0.38 0.38 0.37 0.36 0.36 0.36 0.36 0.35 0.34 0.34 0.34 0.34 0.34 0.34 0.34 0.33 0.33 0.33 0.32 0.32 0.32 0.32 0.32 0.32 0.32 0.32 0.32 0.31 0.31 0.30 0.30 0.29 0.30 0.29 0.28 0.28 0.28 0.28 0.28 0.28 0.28
0.36 0.36 0.36 0.36 0.35 0.35 0.35 0.35 0.35 0.35 0.34 0.34 0.35 0.35 0.34 0.35 0.34 0.34 0.33 0.33 0.33 0.33 0.33 0.33 0.32 0.32 0.32 0.32 0.32 0.32 0.31 0.31 0.30 0.31 0.31 0.30 0.30 0.30 0.29 0.29 0.29 0.29
0.34 0.34 0.35 0.35 0.35 0.35 0.35 0.35 0.35 0.35 0.35 0.34 0.34 0.35 0.35 0.34 0.34 0.34 0.33 0.33 0.33 0.32 0.33 0.33 0.32 0.32 0.32 0.32 0.32 0.32 0.32 0.32 0.32 0.32 0.31 0.31 0.31 0.31 0.30 0.30 0.30 0.30
0.30 0.31 0.32 0.32 0.33 0.33 0.33 0.33 0.33 0.33 0.33 0.33 0.34 0.34 0.34 0.34 0.34 0.34 0.34 0.33 0.33 0.33 0.33 0.33 0.33 0.33 0.33 0.33 0.32 0.32 0.32 0.32 0.32 0.32 0.31 0.31 0.31 0.31 0.31 0.31 0.30 0.30
0.29 0.30 0.31 0.31 0.32 0.32 0.32 0.32 0.33 0.33 0.33 0.32 0.33 0.33 0.33 0.34 0.33 0.33 0.34 0.33 0.33 0.33 0.33 0.33 0.33 0.33 0.33 0.33 0.33 0.32 0.32 0.32 0.32 0.32 0.31 0.31 0.31 0.32 0.32 0.32 0.31 0.31
0.30 0.30 0.30 0.31 0.31 0.32 0.32 0.33 0.33 0.34 0.34 0.34 0.34 0.34 0.34 0.34 0.33 0.34 0.34 0.34 0.34 0.34 0.33 0.33 0.33 0.33 0.34 0.33 0.33 0.32 0.32 0.32 0.32 0.32 0.32 0.32 0.32 0.32 0.32 0.32 0.32 0.31
0.32 0.32 0.32 0.32 0.32 0.32 0.32 0.32 0.32 0.33 0.34 0.34 0.34 0.35 0.35 0.35 0.35 0.34 0.34 0.34 0.34 0.34 0.34 0.34 0.34 0.34 0.34 0.33 0.33 0.32 0.32 0.33 0.32 0.32 0.32 0.32 0.32 0.32 0.32 0.32 0.32 0.32
0.34 0.34 0.34 0.34 0.34 0.34 0.34 0.34 0.34 0.34 0.34 0.34 0.34 0.35 0.36 0.37 0.37 0.37 0.37 0.36 0.35 0.35 0.35 0.35 0.35 0.35 0.34 0.34 0.33 0.33 0.33 0.33 0.33 0.33 0.32 0.32 0.32 0.32 0.33 0.33 0.33 0.32
0.35 0.35 0.36 0.36 0.36 0.36 0.36 0.36 0.37 0.37 0.37 0.37 0.36 0.36 0.36 0.37 0.37 0.37 0.38 0.38 0.37 0.36 0.36 0.36 0.36 0.36 0.36 0.35 0.35 0.34 0.34 0.33 0.33 0.33 0.33 0.33 0.33 0.33 0.33 0.33 0.33 0.33
0.35 0.35 0.35 0.36 0.36 0.37 0.37 0.37 0.37 0.38 0.38 0.38 0.38 0.38 0.38 0.38 0.37 0.37 0.37 0.37 0.37 0.37 0.37 0.37 0.37 0.37 0.36 0.36 0.36 0.35 0.35 0.34 0.34 0.34 0.34 0.34 0.34 0.34 0.34 0.34 0.34 0.33
0.34 0.35 0.35 0.35 0.35 0.35 0.36 0.36 0.36 0.37 0.37 0.37 0.38 0.37 0.38 0.38 0.38 0.38 0.37 0.36 0.36 0.36 0.36 0.37 0.37 0.38 0.37 0.37 0.36 0.36 0.36 0.35 0.35 0.35 0.35 0.35 0.35 0.35 0.35 0.35 0.34 0.34
0.31 0.32 0.32 0.32 0.32 0.32 0.33 0.33 0.33 0.33 0.33 0.34 0.35 0.35 0.35 0.35 0.36 0.36 0.37 0.37 0.37 0.36 0.36 0.36 0.35 0.36 0.36 0.37 0.37 0.36 0.36 0.35 0.35 0.35 0.35 0.35 0.35 0.35 0.35 0.35 0.35 0.34
0.28 0.28 0.29 0.29 0.29 0.29 0.29 0.29 0.30 0.30 0.30 0.31 0.31 0.31 0.31 0.32 0.32 0.33 0.34 0.35 0.35 0.36 0.36 0.37 0.36 0.36 0.35 0.35 0.35 0.36 0.35 0.35 0.35 0.34 0.34 0.34 0.34 0.35 0.35 0.35 0.34 0.34
0.26 0.26 0.26 0.26 0.26 0.26 0.26 0.26 0.27 0.27 0.27 0.28 0.28 0.28 0.29 0.29 0.30 0.30 0.31 0.31 0.32 0.33 0.34 0.35 0.35 0.35 0.35 0.35 0.35 0.35 0.35 0.34 0.34 0.34 0.34 0.33 0.33 0.34 0.34 0.34 0.34 0.34
0.24 0.24 0.24 0.24 0.24 0.24 0.24 0.24 0.24 0.24 0.25 0.25 0.25 0.26 0.26 0.27 0.27 0.28 0.28 0.28 0.29 0.30 0.31 0.32 0.32 0.33 0.34 0.35 0.35 0.35 0.35 0.34 0.34 0.33 0.33 0.33 0.32 0.32 0.32 0.33 0.33 0.33
0.21 0.22 0.22 0.22 0.22 0.22 0.22 0.22 0.22 0.22 0.23 0.23 0.23 0.24 0.24 0.25 0.25 0.25 0.26 0.26 0.27 0.27 0.28 0.29 0.30 0.31 0.32 0.33 0.34 0.34 0.34 0.34 0.33 0.33 0.33 0.32 0.32 0.31 0.31 0.31 0.32 0.32
0.19 0.19 0.20 0.20 0.20 0.20 0.20 0.20 0.21 0.21 0.21 0.21 0.21 0.21 0.22 0.23 0.23 0.23 0.24 0.24 0.25 0.26 0.26 0.27 0.27 0.28 0.30 0.31 0.32 0.32 0.32 0.32 0.32 0.32 0.32 0.32 0.31 0.31 0.31 0.31 0.30 0.31
0.18 0.18 0.18 0.18 0.19 0.19 0.19 0.19 0.19 0.19 0.19 0.19 0.19 0.20 0.20 0.21 0.21 0.21 0.22 0.23 0.23 0.23 0.24 0.25 0.26 0.27 0.28 0.29 0.29 0.30 0.30 0.30 0.30 0.30 0.30 0.30 0.30 0.30 0.30 0.30 0.30 0.29
0.17 0.17 0.17 0.17 0.18 0.18 0.18 0.17 0.17 0.17 0.17 0.18 0.18 0.18 0.18 0.19 0.19 0.19 0.20 0.21 0.21 0.22 0.22 0.23 0.24 0.25 0.26 0.27 0.27 0.28 0.28 0.28 0.28 0.28 0.28 0.28 0.28 0.28 0.29 0.29 0.29 0.28
0.16 0.16 0.16 0.17 0.17 0.17 0.17 0.17 0.16 0.16 0.17 0.17 0.17 0.17 0.17 0.17 0.18 0.18 0.19 0.19 0.20 0.20 0.21 0.21 0.22 0.24 0.25 0.25 0.26 0.26 0.26 0.26 0.26 0.26 0.26 0.26 0.26 0.27 0.27 0.27 0.27 0.27
0.15 0.15 0.16 0.16 0.16 0.16 0.16 0.16 0.16 0.16 0.16 0.16 0.16 0.17 0.17 0.17 0.17 0.17 0.18 0.18 0.18 0.19 0.19 0.19 0.20 0.21 0.23 0.23 0.24 0.24 0.24 0.24 0.24 0.24 0.24 0.24 0.24 0.24 0.25 0.26 0.26 0.26
0.15 0.15 0.15 0.16 0.16 0.16 0.16 0.16 0.16 0.15 0.15 0.16 0.15 0.16 0.16 0.16 0.16 0.16 0.17 0.17 0.17 0.17 0.18 0.18 0.19 0.19 0.21 0.21 0.22 0.22 0.22 0.22 0.22 0.22 0.21 0.22 0.22 0.22 0.23 0.23 0.24 0.24
0.14 0.15 0.15 0.15 0.15 0.15 0.15 0.15 0.15 0.15 0.15 0.15 0.14 0.14 0.14 0.15 0.16 0.16 0.16 0.17 0.17 0.17 0.17 0.17 0.17 0.18 0.19 0.20 0.20 0.21 0.21 0.20 0.20 0.20 0.19 0.20 0.20 0.20 0.21 0.21 0.21 0.22
0.14 0.14 0.15 0.15 0.14 0.14 0.15 0.14 0.14 0.14 0.14 0.14 0.13 0.13 0.13 0.13 0.14 0.14 0.14 0.15 0.16 0.16 0.16 0.16 0.16 0.17 0.17 0.18 0.19 0.19 0.19 0.19 0.19 0.18 0.18 0.18 0.18 0.18 0.19 0.20 0.20 0.20
0.14 0.14 0.14 0.14 0.13 0.13 0.13 0.13 0.13 0.13 0.13 0.13 0.13 0.12 0.12 0.12 0.12 0.12 0.12 0.12 0.13 0.13 0.14 0.15 0.15 0.15 0.16 0.17 0.17 0.18 0.18 0.18 0.18 0.17 0.16 0.17 0.17 0.17 0.17 0.18 0.18 0.19
Wind_Speed
40 41 42 42 43 43 44 44 45 45 45 45 46 46 46 46 46 47 47 48 48 49 49 49 50 50 50 51 51 51 52 52 53 53 53 54 54 54 55 55 55 56
40 41 42 42 43 43 44 44 45 45 46 46 46 46 46 47 47 47 48 48 49 49 50 50 50 51 51 51 51 52 52 53 53 53 53 54 54 55 55 55 56 56
40 41 41 42 43 43 44 44 45 45 46 46 46 47 47 47 48 48 49 49 50 50 50 51 51 51 51 52 52 52 53 53 53 53 54 55 55 55 56 56 56 56
39 40 40 41 42 43 43 44 44 45 46 46 47 47 48 48 48 49 49 50 50 51 51 51 52 52 52 52 52 53 53 54 54 54 55 55 55 56 56 56 57 57
39 39 40 41 41 42 43 43 44 45 45 46 47 48 48 48 49 49 50 50 50 51 51 52 52 52 53 53 53 54 54 54 54 55 56 56 56 56 57 57 57 58
40 40 41 41 42 42 43 44 44 45 45 46 47 48 48 49 50 50 50 51 51 51 52 52 52 53 53 53 54 54 55 55 55 55 56 57 57 57 57 58 58 58
41 42 42 42 43 43 43 44 44 45 45 46 47 48 49 49 50 51 51 52 52 52 53 53 53 53 54 54 54 55 55 55 56 56 57 58 58 58 58 58 59 59
43 43 44 44 44 43 44 44 44 45 46 46 47 48 49 50 51 51 52 52 53 53 54 54 55 55 55 55 56 56 56 56 57 57 58 59 59 59 60 60 60 60
44 44 44 44 44 44 44 45 45 46 46 47 48 48 49 50 51 52 52 53 54 54 55 55 56 56 56 57 57 58 58 58 58 59 59 60 60 61 61 61 61 61
45 45 46 46 46 46 47 47 47 48 48 48 49 49 50 51 51 52 53 54 54 55 56 56 56 57 57 58 58 59 59 60 60 60 61 61 62 62 62 62 62 63
47 47 47 48 48 48 48 49 49 49 50 50 51 51 52 52 53 53 53 54 54 55 56 56 57 57 58 59 59 59 60 61 61 62 62 62 63 63 63 63 63 64
48 48 49 49 49 50 50 50 51 51 52 52 52 53 53 54 54 54 54 54 55 55 56 56 57 57 58 59 60 61 61 62 62 62 62 63 63 63 63 63 63 63
49 50 50 50 51 51 51 51 52 52 52 53 53 53 54 54 54 55 55 55 55 56 56 56 57 57 58 59 60 61 61 62 62 62 62 62 62 62 62 62 62 62
48 49 49 50 50 50 51 51 51 52 52 52 53 53 54 54 54 55 55 55 55 55 56 56 56 57 57 58 58 59 60 61 61 61 61 61 61 61 61 61 61 61
47 47 48 48 48 49 49 50 50 51 51 51 52 52 52 53 53 53 53 54 54 54 54 55 55 55 56 56 57 58 58 59 59 60 60 60 60 60 60 60 60 60
47 47 48 48 48 48 48 49 49 49 50 50 50 50 51 51 51 52 52 53 53 53 53 54 54 54 55 56 56 57 57 57 57 58 58 58 58 58 58 59 59 59
49 49 48 48 48 48 49 49 49 49 49 49 50 50 50 50 51 51 51 52 52 52 52 53 53 53 54 54 54 55 55 55 55 56 56 56 57 57 57 57 57 58
49 49 49 49 49 49 49 49 49 49 49 49 50 50 50 50 50 50 50 50 51 51 51 51 52 52 52 53 53 53 53 53 54 54 54 55 55 56 56 56 56 56
49 49 49 48 48 48 48 48 48 49 49 49 49 49 49 49 49 49 50 50 50 50 51 51 51 51 51 52 52 52 52 52 52 52 53 53 54 54 55 55 55 55
48 48 48 48 47 47 47 47 47 47 47 47 48 48 48 48 49 49 49 50 50 50 50 50 50 51 51 51 51 51 51 51 51 51 51 51 52 52 53 53 53 53
46 46 46 46 46 46 46 46 46 46 46 46 46 47 47 47 48 48 48 49 49 49 49 50 50 50 50 50 50 50 50 50 50 50 50 50 51 51 51 51 52 52
44 44 44 44 43 43 43 43 43 44 44 44 44 45 45 45 46 46 47 47 47 48 48 48 49 49 49 49 49 49 48 49 49 49 49 49 49 49 49 50 50 50
42 41 41 41 40 40 40 40 40 40 40 41 41 41 42 42 42 43 43 44 44 45 45 45 46 46 46 47 47 47 47 47 47 47 47 47 47 47 47 47 47 48
39 39 39 38 38 37 37 38 37 37 38 38 38 38 39 39 39 39 40 40 40 41 41 41 42 42 42 43 43 43 44 44 44 44 44 44 44 45 45 45 45 45
36 36 36 36 36 35 35 36 36 36 36 36 36 36 36 37 36 36 37 37 37 37 38 38 38 39 39 40 40 41 41 41 41 41 42 42 42 43 43 43 43 43
34 34 33 33 33 33 33 34 34 34 34 34 34 34 34 34 34 34 34 34 34 35 35 35 35 36 37 37 38 38 39 39 39 40 41 41 41 41 41 41 42 42
Wind_Direction
271 270 270 269 269 269 269 268 268 268 268 268 267 267 267 267 267 266 266 266 265 265 265 265 265 265 265 265 264 265 265 265 265 265 265 265 265 265 265 265 265 265
272 272 271 271 271 270 270 270 269 269 269 269 268 268 268 268 268 267 267 266 266 266 266 265 265 265 265 265 265 265 265 265 265 266 265 265 265 265 265 265 265 265
274 273 273 272 272 272 271 270 270 270 269 269 269 269 269 268 268 268 268 267 267 267 266 266 266 266 266 265 265 265 265 265 265 266 265 265 266 266 266 266 266 266
276 275 274 274 274 273 272 271 271 270 270 270 270 270 269 269 269 269 268 268 268 268 267 267 267 266 266 266 266 266 266 266 266 266 266 266 266 266 266 266 266 266
278 277 276 276 275 275 274 273 272 272 272 271 271 271 271 270 270 269 269 269 268 268 268 268 267 267 267 267 266 266 266 267 267 266 266 266 266 266 266 266 266 266
279 278 278 277 276 276 275 275 274 274 273 273 273 273 272 271 271 270 270 269 269 269 268 268 268 268 267 267 267 267 267 267 267 267 267 267 267 267 267 266 266 266
280 279 279 278 278 277 276 276 275 275 275 275 274 274 273 273 272 271 271 270 270 269 269 268 268 268 268 268 267 267 268 268 268 267 267 267 267 267 267 267 266 266
280 280 280 280 279 278 277 277 276 276 276 276 276 275 274 274 273 273 272 272 271 270 270 269 269 268 268 268 268 268 268 268 268 268 268 268 268 268 267 267 267 267
281 281 281 280 280 279 279 278 277 277 276 276 276 275 275 274 274 274 274 273 273 272 271 271 270 270 269 269 269 269 269 269 268 268 268 268 268 268 268 267 267 267
282 281 281 281 281 280 280 279 278 277 277 276 276 275 275 275 275 275 275 274 274 273 273 272 271 271 270 270 270 270 269 269 269 269 269 269 268 268 268 267 267 267
283 282 282 282 281 280 280 279 278 278 277 276 276 276 276 276 276 276 276 275 275 274 274 273 272 272 271 270 270 270 270 270 269 269 269 269 269 268 268 268 267 267
283 282 282 281 281 280 280 279 279 278 278 277 277 277 277 277 277 277 276 276 275 275 274 273 273 272 272 271 271 270 270 270 270 269 269 269 269 269 268 268 268 267
283 282 282 282 281 281 280 280 280 279 279 279 278 278 278 277 277 277 276 276 275 275 274 274 273 273 273 272 272 271 270 270 270 270 270 270 269 269 269 268 268 267
283 283 282 282 282 281 281 281 281 280 280 280 279 279 279 278 278 277 277 276 276 275 275 275 274 274 273 273 272 272 271 271 270 270 270 270 270 269 269 268 268 268
284 283 283 283 283 282 282 282 282 281 281 281 280 280 279 279 279 278 278 277 277 276 276 275 275 274 274 274 273 273 273 272 272 271 270 270 270 269 269 268 268 268
284 283 283 283 282 282 282 282 282 282 282 281 281 281 280 280 279 279 279 278 278 277 277 276 276 275 275 275 275 274 274 273 273 272 271 270 270 269 269 268 268 268
284 284 283 283 283 283 283 283 283 283 283 283 282 282 282 281 281 280 280 279 278 278 278 277 276 276 276 276 276 275 274 273 273 272 271 270 270 269 269 268 268 268
285 285 285 284 284 284 285 285 285 284 284 284 284 283 283 282 282 281 280 280 279 279 278 278 277 277 277 277 276 276 275 274 273 272 272 271 270 270 269 269 268 268
286 286 285 285 285 285 285 285 285 285 285 285 284 284 283 283 282 282 281 281 280 280 279 279 278 278 278 278 277 276 276 275 274 273 272 272 271 270 270 269 269 269
287 286 286 285 285 285 285 286 286 286 286 285 285 284 284 283 283 283 282 281 281 280 280 279 278 279 279 278 277 277 276 275 274 274 273 272 272 271 271 270 270 269
289 288 287 287 287 287 287 287 287 286 286 286 285 285 285 284 284 283 283 282 281 281 280 279 279 279 279 278 278 277 277 275 275 274 274 273 273 272 272 271 270 270
291 290 289 288 288 288 288 288 288 288 288 287 287 287 286 286 285 285 284 283 282 282 281 280 280 280 280 279 278 278 277 276 275 275 274 274 273 273 272 272 271 270
292 291 290 290 289 290 290 290 290 290 290 290 289 289 289 288 288 287 286 285 285 284 283 282 281 281 281 280 279 279 278 277 276 275 275 274 274 273 273 272 272 271
293 292 291 291 291 291 291 291 291 292 292 292 292 291 291 291 290 289 288 288 287 286 285 284 283 282 282 281 280 280 279 277 277 276 275 274 274 273 273 272 272 272
294 293 292 292 292 292 292 292 293 293 293 293 293 293 293 293 292 291 291 290 289 288 287 286 285 284 284 283 282 281 280 278 277 277 276 275 275 274 274 273 272 272
295 295 294 294 294 294 294 294 294 294 295 295 295 295 295 295 294 294 293 292 291 291 290 289 288 286 286 285 284 283 282 280 279 278 277 277 276 276 275 274 274 273